Miscellaneous Local Product
Issued by NWS North Platte, NE

Home | Current Version | Previous Version | Graphics & Text | Print | Product List | Glossary On
Versions: 1 2 3 4 5 6 7 8 9 10 11 12 13 14 15 16 17 18 19 20 21 22 23 24 25 26 27 28 29 30 31 32 33 34 35 36 37 38 39 40 41 42 43 44 45 46 47 48 49 50
342
AXUS43 KLBF 040110
MISLBF


WESTERN AND NORTH CENTRAL NEBRASKA HOURLY WEATHER ROUNDUP
NATIONAL WEATHER SERVICE NORTH PLATTE NE
700 PM CST SAT DEC 03 2016

NOTE: "FAIR" INDICATES FEW OR NO CLOUDS BELOW 12,000 FEET WITH NO
SIGNIFICANT WEATHER AND/OR OBSTRUCTIONS TO VISIBILITY.

NOTE: STATIONS NOT REPORTING VARIABLES SUCH AS SKY/WEATHER OR
PRESSURE ARE PROVIDED BY RAWS AND APRS NETWORKS AND ARE NOT UNDER
NATIONAL WEATHER SERVICE QUALITY CONTROL.

...OBSERVATIONS IN AND NEAR THE EASTERN PANHANDLE OF NEBRASKA...

CITY           SKY/WX    TMP DP  RH WIND       PRES   REMARKS
PINE RIDGE     PTCLDY    28  20  71 S5        29.93S WCI  23
CHADRON        CLOUDY    30  15  53 SW6       29.96R WCI  24
ALLIANCE       CLOUDY    37  20  50 NW12      29.96R WCI  29
SIDNEY         CLOUDY    33  15  47 NW14      29.99R WCI  23
CRESCENT LAKE    N/A     35  17  49 NW6G13      N/A  WCI  30
$$

...OBSERVATIONS IN NORTHERN NEBRASKA AND FAR SOUTHERN SOUTH DAKOTA...

CITY           SKY/WX    TMP DP  RH WIND       PRES   REMARKS
WINNER         FAIR      32  22  66 W7        29.93R WCI  26
VALENTINE      CLEAR     26  17  68 SW7       29.94R WCI  18
THEDFORD       CLOUDY    37  15  39 W5        29.96S WCI  34
AINSWORTH      PTCLDY    33  18  54 W6        29.95R WCI  27
O`NEILL        CLOUDY    36  32  87 S16G22    29.99R WCI  26
ORD            MOCLDY    33  29  85 S10       30.02R WCI  25
BROKEN BOW     CLOUDY    35  31  85 S10       30.00S WCI  27
VALENTINE NWR    N/A     34  14  43 W6G13       N/A  WCI  29
BUTTE            N/A     34  32  92 SE15G24     N/A  WCI  24
HALSEY           N/A     38  27  65 S9          N/A  WCI  31
CHAMBERS         N/A     34  31  89 MISG        N/A
EWING            N/A     34  30  86 S12G20      N/A  WCI  25
$$

...OBSERVATIONS IN SOUTHWEST NEBRASKA AND FAR NORTHEAST COLORADO...

CITY           SKY/WX    TMP DP  RH WIND       PRES   REMARKS
HOLYOKE        FAIR      37  14  38 NW7       29.99R WCI  32
IMPERIAL       PTCLDY    36  26  67 SW3       29.98R
OGALLALA       MOCLDY    31  14  49 NW7       29.97S WCI  24
NORTH PLATTE   PTCLDY    36  30  79 S10       29.99R WCI  28
MCCOOK         CLOUDY    35  32  88 S8        30.01S WCI  29
LEXINGTON      CLOUDY    33  31  93 S9        30.02F WCI  25
STAPLETON        N/A     33  29  85 CALM        N/A
GOTHENBURG       N/A     34  32  92 S6          N/A  WCI  29
CALLAWAY         N/A     33  31  94 S14         N/A  WCI  23
$$

...OBSERVATIONS IN CENTRAL LINCOLN COUNTY AREA...

CITY           SKY/WX    TMP DP  RH WIND       PRES   REMARKS
N.P. AIRPORT   PTCLDY    36  30  79 S10       29.99R WCI  28
N.P. DOWNTOWN    N/A     36  30  80 S3          N/A
N.P. SOUTHEAST   N/A     35  30  83 S6G15       N/A  WCI  30
N.P. HILLCREST   N/A     35  31  87 S7          N/A  WCI  29
$$

...SOME OBSERVATIONS FROM AROUND THE REGION...

CITY           SKY/WX    TMP DP  RH WIND       PRES   REMARKS
LARAMIE        CLOUDY    20   6  55 NW8       29.99R WCI  10
CHEYENNE       PTCLDY    26  10  50 NW15      29.98R WCI  14
DENVER         PTCLDY    31  18  58 NE3       29.99R
AKRON          CLOUDY    26  15  63 N8        29.99R WCI  18
SCOTTSBLUFF    CLOUDY    36  13  38 W13       30.00R WCI  27
RAPID CITY     CLOUDY    33  22  63 W6        29.90F WCI  28
BISMARCK       CLOUDY    26  23  88 CALM      29.85F
PIERRE         CLEAR     30  22  72 W6        29.90F WCI  24
SIOUX FALLS    DRIZZLE   34  33  96 S16G26    30.05F FOG     WCI  24
OMAHA          LGT SNOW  33  30  88 SE6       30.14F FOG     WCI  28
GRAND ISLAND   CLOUDY    32  32 100 S7        30.07F WCI  26
KANSAS CITY    CLOUDY    45  30  55 E7        30.13S
WICHITA        LGT RAIN  42  40  92 CALM      30.09S
OKLAHOMA CITY  CLOUDY    44  43  96 E7        30.05S FOG
DALLAS         CLOUDY    49  46  90 E15       29.95F
AMARILLO       CLOUDY    39  38  96 CALM      30.00R
DODGE CITY     LGT RAIN  38  38 100 S6        30.02F FOG     WCI  33
HAYS           LGT SNOW  33  32  96 NE5       30.06R FOG     WCI  29
GOODLAND       CLOUDY    29  25  85 S8        29.98R WCI  21
$$




USA.gov is the U.S. government's official web portal to all federal, state and local government web resources and services.